www.pogodaiklimat.ru

Погода и климат >> Архив погоды >> Финляндия >> Липери Туискаванлуото


ПОГОДА в Липери Туискаванлуото

  • Прогноз погоды в Липери Туискаванлуото
  • Монитор погоды в Липери Туискаванлуото

АРХИВ ПОГОДЫ в Липери Туискаванлуото

Время (UTC), дата Ветер
(напр.,м/с)
 
Видим.   Явления Облачность Т
(С)
Тd
(С)
f
(%)
Тe
(С)
Тes
(С)
Комфортность P
(гПа)
Po
(гПа)
Тmin
(С)
Tmax
(С)
R
(мм)
R24
(мм)
S
(см)
22 8.09 ЮВ 3 н/о н/о +14.7 +13.2 91 +14 +14 1028.7 1019.1
23 8.09 ЮВ 3 н/о н/о +14.5 +12.5 88 +14 +14 1028.7 1019.0
00 9.09 ЮВ 5-6
{6}
н/о н/о +14.3 +12.8 91 +13 +13 1028.7 1019.0
01 9.09 ЮВ 7 н/о н/о +14.0 +12.4 90 +12 +12 1028.2 1018.6
02 9.09 ЮВ 6 н/о н/о +13.7 +11.9 89 +11 +11 1028.1 1018.4
03 9.09 ЮВ 7-8
{8}
н/о н/о +13.5 +11.5 88 +11 +11 1028.1 1018.4
04 9.09 В 7-8
{9}
н/о н/о +13.4 +11.5 88 +11 +11 1028.0 1018.3
05 9.09 В 7-8
{9}
н/о н/о +13.3 +11.5 89 +11 +11 1027.8 1018.1
06 9.09 В 7-8
{8}
н/о н/о +13.2 +11.8 91 +11 +11 1027.4 1017.7 +13.1 +16.2
07 9.09 В 7 н/о н/о +13.4 +12.0 91 +11 +11 1027.1 1017.4
08 9.09 В 6-7
{8}
н/о н/о +13.7 +12.0 89 +11 +11 1026.9 1017.2
09 9.09 В 4-5
{7}
н/о н/о +14.1 +12.3 89 +13 +13 1026.6 1017.0
10 9.09 В 4 н/о н/о +14.9 +12.5 86 +14 +14 1026.3 1016.7
11 9.09 В 3 н/о н/о +15.6 +13.0 85 +15 +15 1026.1 1016.5
12 9.09 ЮВ 5-6
{6}
н/о н/о +16.7 +13.8 83 +16 +16 1025.5 1015.9
13 9.09 ЮВ 6 н/о н/о +16.6 +13.5 82 +16 +16 1025.4 1015.8
14 9.09 ЮВ 7 н/о н/о +16.4 +12.8 79 +15 +15 1025.2 1015.6
15 9.09 ЮВ 7-9
{9}
н/о н/о +16.2 +12.9 81 +15 +15 1024.9 1015.3
16 9.09 ЮВ 7 н/о н/о +16.0 +12.8 81 +14 +14 1024.9 1015.3
17 9.09 ЮВ 6 н/о н/о +15.6 +12.8 83 +14 +14 1025.1 1015.5
18 9.09 ЮВ 5-6
{8}
н/о н/о +15.3 +12.6 84 +14 +14 1025.3 1015.7 +13.1 +17.2
19 9.09 ЮВ 9 н/о н/о +14.7 +12.0 84 +12 +12 1025.1 1015.5
20 9.09 ЮВ 6 н/о н/о +14.4 +11.9 85 +12 +12 1025.0 1015.4
21 9.09 В 6-7
{8}
н/о н/о +14.3 +11.9 85 +12 +12 1024.7 1015.1
22 9.09 В 6 н/о н/о +14.2 +11.8 85 +12 +12 1024.6 1015.0
23 9.09 ЮВ 6 н/о н/о +14.1 +12.2 88 +12 +12 1024.5 1014.9
00 10.09 ЮВ 6-8
{8}
н/о н/о +13.9 +12.8 93 +12 +12 1024.5 1014.9
01 10.09 ЮВ 5-6
{7}
н/о н/о +14.0 +12.6 91 +12 +12 1024.4 1014.8
02 10.09 ЮВ 4 н/о н/о +14.1 +12.7 91 +13 +13 1024.2 1014.6
03 10.09 ЮВ 5-6
{7}
н/о н/о +14.0 +12.9 93 +12 +12 1024.1 1014.4
04 10.09 ЮВ 5 н/о н/о +14.0 +13.3 96 +12 +12 1024.1 1014.4
05 10.09 ЮВ 5-6
{7}
н/о н/о +14.1 +13.3 95 +12 +12 1024.1 1014.5
06 10.09 В 4-5
{5}
н/о н/о +13.7 +13.1 96 +12 +12 1024.2 1014.5 +13.7 +15.3
07 10.09 ЮВ 4 н/о н/о +13.9 +13.5 97 +12 +12 1024.4 1014.8
08 10.09 ЮВ 5 н/о н/о +14.4 +13.9 97 +13 +13 1024.5 1014.9
09 10.09 В 4-5
{7}
н/о н/о +14.8 +13.8 94 +14 +14 1024.0 1014.4
10 10.09 В 3-5
{5}
н/о н/о +15.3 +14.1 93 +15 +15 1023.8 1014.2
11 10.09 ЮВ 3 н/о н/о +16.4 +14.5 89 +16 +16 1023.5 1013.9
12 10.09 ЮВ 5-6
{6}
н/о н/о +17.2 +15.2 88 +17 +17 1023.4 1013.8
13 10.09 ЮВ 4 н/о н/о +17.5 +15.5 88 +17 +17 1023.3 1013.7
14 10.09 Ю 5-5
{6}
н/о н/о +17.4 +15.8 90 +17 +17 1023.1 1013.6
15 10.09 ЮВ 3-4
{5}
н/о н/о +16.9 +15.9 94 +17 +17 1022.9 1013.3
16 10.09 ЮВ 4 н/о н/о +17.1 +16.0 93 +17 +17 1022.6 1013.0
17 10.09 ЮВ 4 н/о н/о +16.8 +15.8 94 +16 +16 1022.5 1013.0
18 10.09 ЮВ 3-3
{4}
н/о н/о +16.5 +16.0 97 +16 +16 1022.4 1012.9 +13.7 +17.7
19 10.09 ЮВ 3-4
{4}
н/о н/о +16.2 +15.8 97 +16 +16 1022.2 1012.6
20 10.09 ЮВ 3 н/о н/о +16.4 +15.8 96 +16 +16 1022.0 1012.5
21 10.09 Ю 4-4
{5}
н/о н/о +16.2 +15.6 96 +15 +15 1022.0 1012.5
22 10.09 ЮВ 3-4
{4}
н/о н/о +16.3 +15.5 95 +16 +16 1021.9 1012.4
23 10.09 ЮВ 5 н/о н/о +16.5 +15.3 93 +16 +16 1021.8 1012.3
00 11.09 ЮВ 6-6
{7}
н/о н/о +16.7 +15.1 90 +16 +16 1021.4 1011.8
01 11.09 ЮВ 6 н/о н/о +16.9 +15.1 89 +16 +16 1021.1 1011.6
02 11.09 ЮВ 6 н/о н/о +16.8 +15.2 90 +16 +16 1020.6 1011.1
03 11.09 ЮВ 6-6
{7}
н/о н/о +16.1 +15.2 94 +15 +15 1020.2 1010.7
04 11.09 ЮВ 7 н/о н/о +16.0 +15.0 94 +14 +14 1019.9 1010.3
05 11.09 ЮВ 7 н/о н/о +16.0 +15.0 94 +14 +14 1019.5 1010.0
06 11.09 ЮВ 6-7
{8}
н/о н/о +16.4 +15.1 92 +15 +15 1019.4 1009.8 +15.9 +17.1
07 11.09 ЮВ 7-8
{8}
н/о н/о +16.7 +15.3 91 +15 +15 1018.8 1009.3
08 11.09 ЮВ 6-7
{8}
н/о н/о +17.2 +15.5 90 +16 +16 1018.1 1008.6
09 11.09 Ю 6-8
{8}
н/о н/о +17.9 +15.6 86 +17 +17 1017.8 1008.4
10 11.09 Ю 8 н/о н/о +18.0 +15.6 86 +17 +17 1017.4 1007.9
11 11.09 ЮВ 10 н/о н/о +17.7 +15.1 85 +16 +16 1017.0 1007.6
12 11.09 ЮВ 8-10
{10}
н/о н/о +18.0 +15.1 83 +17 +17 1016.4 1007.0
13 11.09 Ю 9 н/о н/о +18.1 +14.5 79 +17 +17 1016.0 1006.6
14 11.09 Ю 9 н/о н/о +18.1 +14.3 78 +17 +17 1015.7 1006.2
15 11.09 Ю 10-12
{13}
н/о н/о +17.8 +12.0 69 +17 +17 1015.7 1006.3
16 11.09 Ю 8 н/о н/о +15.7 +12.9 83 +14 +14 1015.9 1006.4
17 11.09 Ю 9 н/о н/о +15.3 +12.6 84 +13 +13 1015.3 1005.8
18 11.09 Ю 11-13
{14}
н/о н/о +15.7 +12.8 83 +13 +13 1014.5 1005.0 +15.0 +18.2
19 11.09 Ю 11-14
{14}
н/о н/о +16.0 +12.8 81 +14 +14 1013.5 1004.1
20 11.09 Ю 12-15
{15}
н/о н/о +16.0 +12.9 82 +14 +14 1013.0 1003.5
21 11.09 Ю 11-13
{15}
н/о н/о +15.9 +13.6 86 +14 +14 1012.4 1003.0
22 11.09 Ю 11 н/о н/о +15.7 +13.6 87 +13 +13 1012.3 1002.9
23 11.09 Ю 10 н/о н/о +15.5 +13.9 90 +13 +13 1011.8 1002.3
00 12.09 Ю 9-11
{12}
н/о н/о +15.6 +14.3 92 +14 +14 1011.7 1002.3
01 12.09 Ю 8-10
{11}
н/о н/о +15.8 +14.1 90 +14 +14 1011.8 1002.4
02 12.09 Ю 11-11
{14}
н/о н/о +15.9 +14.1 89 +14 +14 1011.7 1002.3
03 12.09 Ю 8-10
{12}
н/о н/о +15.9 +14.2 90 +14 +14 1011.6 1002.2
04 12.09 ЮЗ 11 н/о н/о +16.0 +12.8 81 +14 +14 1012.0 1002.5
05 12.09 ЮЗ 9-12
{14}
н/о н/о +15.5 +12.6 83 +13 +13 1012.3 1002.8
06 12.09 Ю 9-12
{12}
н/о н/о +15.0 +12.6 86 +13 +13 1012.4 1002.9 +15.0 +16.1
07 12.09 Ю 9 н/о н/о +15.1 +12.9 87 +13 +13 1012.3 1002.8
08 12.09 Ю 11 н/о н/о +15.4 +12.8 84 +13 +13 1012.2 1002.7
09 12.09 Ю 11-13
{14}
н/о н/о +15.6 +13.0 85 +13 +13 1011.6 1002.2
10 12.09 Ю 11 н/о н/о +15.0 +13.2 89 +12 +12 1011.4 1001.9
11 12.09 Ю 10 н/о н/о +15.3 +13.2 87 +13 +13 1010.8 1001.3
12 12.09 Ю 11-13
{14}
н/о н/о +15.7 +13.2 85 +13 +13 1010.1 1000.7
13 12.09 Ю 11-13
{14}
н/о н/о +15.6 +12.7 83 +13 +13 1009.6 1000.2
14 12.09 Ю 14 н/о н/о +14.2 +13.1 93 +11 +11 1009.2 999.7
15 12.09 Ю 11-14
{17}
н/о н/о +14.3 +13.5 95 +11 +11 1008.7 999.2
16 12.09 Ю 11 н/о н/о +14.6 +13.2 91 +12 +12 1008.4 998.9
17 12.09 Ю 11-13
{14}
н/о н/о +14.7 +13.1 90 +12 +12 1007.8 998.3
18 12.09 ЮЗ 10 н/о н/о +14.7 +13.6 93 +12 +12 1007.5 998.0 +14.0 +15.8
19 12.09 ЮЗ 11 н/о н/о +14.5 +13.2 92 +12 +12 1007.4 998.0
20 12.09 ЮЗ 11 н/о н/о +14.7 +12.9 89 +12 +12 1007.4 998.0
21 12.09 ЮЗ 10-13
{13}
н/о н/о +14.5 +12.7 89 +12 +12 1007.5 998.0
22 12.09 З 8 н/о н/о +14.1 +12.5 90 +12 +12 1007.5 998.1
23 12.09 ЮЗ 8 н/о н/о +13.7 +12.0 89 +11 +11 1007.7 998.2
00 13.09 ЮЗ 8-10
{10}
н/о н/о +13.4 +12.0 91 +11 +11 1007.8 998.3
01 13.09 ЮЗ 6 н/о н/о +13.2 +11.9 92 +11 +11 1007.6 998.1
02 13.09 ЮЗ 7-9
{9}
н/о н/о +13.5 +11.9 90 +11 +11 1007.2 997.8
03 13.09 ЮЗ 8-10
{10}
н/о н/о +13.6 +11.8 89 +11 +11 1006.7 997.3
04 13.09 ЮЗ 8 н/о н/о +13.4 +12.1 92 +11 +11 1006.3 996.8
05 13.09 ЮЗ 8 н/о н/о +13.3 +11.9 91 +10 +10 1005.5 996.1
06 13.09 ЮЗ 8-10
{11}
н/о н/о +13.6 +12.1 91 +11 +11 1005.5 996.0 +13.1 +14.8
07 13.09 ЮЗ 8-10
{10}
н/о н/о +13.8 +12.1 89 +11 +11 1004.9 995.4
08 13.09 ЮЗ 8 н/о н/о +14.0 +12.2 89 +11 +11 1004.4 994.9
09 13.09 З 7-10
{17}
н/о н/о +12.3 +10.8 91 +9 +9 1004.8 995.3
10 13.09 З 7 н/о н/о +12.8 +11.0 89 +10 +10 1004.6 995.1
11 13.09 З 7 н/о н/о +14.0 +10.9 82 +12 +12 1004.7 995.2
12 13.09 З 7-8
{9}
н/о н/о +13.6 +9.2 75 +11 +11 1004.5 995.0
13 13.09 З 6 н/о н/о +13.9 +10.0 77 +12 +12 1004.3 994.9
14 13.09 З 6 н/о н/о +14.0 +9.3 73 +12 +12 1004.4 994.9
15 13.09 З 7-9
{9}
н/о н/о +13.6 +9.1 74 +11 +11 1004.4 995.0
16 13.09 З 5 н/о н/о +13.2 +9.2 77 +11 +11 1004.7 995.2
17 13.09 З 5 н/о н/о +13.1 +9.5 79 +11 +11 1004.8 995.3
18 13.09 З 3-4
{6}
н/о н/о +11.8 +9.8 88 +10 +10 1004.9 995.4 +11.8 +15.5
19 13.09 З 5-6
{6}
н/о н/о +11.7 +8.9 83 +9 +9 1004.8 995.3
20 13.09 З 6 н/о н/о +11.7 +8.9 83 +9 +9 1004.5 994.9
21 13.09 З 7-8
{8}
н/о н/о +11.1 +8.3 83 +8 +8 1004.5 995.0
22 13.09 З 7 н/о н/о +10.8 +8.4 85 +7 +7 1004.4 994.9
23 13.09 З 8 н/о н/о +10.3 +7.9 85 +6 +6 1004.4 994.9
00 14.09 З 7-9
{12}
н/о н/о +9.8 +8.2 90 +6 +6 1004.6 995.0
01 14.09 З 7 н/о н/о +10.1 +8.7 91 +6 +6 1004.8 995.2
02 14.09 З 7-9
{10}
н/о н/о +9.9 +8.3 90 +6 +6 1005.0 995.5
03 14.09 З 9-11
{11}
н/о н/о +10.1 +8.4 89 +6 +6 1005.3 995.7
04 14.09 З 9 н/о н/о +9.9 +7.7 86 +6 +6 1005.6 996.0
05 14.09 З 7-10
{13}
н/о н/о +9.9 +8.0 88 +6 +6 1005.7 996.1
06 14.09 СЗ 8-11
{12}
н/о н/о +10.3 +7.6 83 +6 +6 1005.7 996.2 +9.6 +11.8
07 14.09 З 9-11
{12}
н/о н/о +10.6 +7.0 78 +7 +7 1005.9 996.3
08 14.09 СЗ 8 н/о н/о +10.7 +6.7 76 +7 +7 1006.3 996.7
09 14.09 СЗ 10-13
{13}
н/о н/о +11.7 +6.0 68 +8 +8 1006.8 997.2
10 14.09 З 11 н/о н/о +12.0 +7.1 72 +8 +8 1007.2 997.7
11 14.09 З 10 н/о н/о +12.6 +7.7 72 +9 +9 1007.5 998.0
12 14.09 З 7-9
{15}
н/о н/о +10.0 +6.9 81 +6 +6 1008.2 998.6
13 14.09 З 6 н/о н/о +11.7 +7.8 77 +9 +9 1008.3 998.7
14 14.09 З 5 н/о н/о +11.2 +7.6 78 +9 +9 1008.8 999.3
15 14.09 СЗ 6-7
{8}
н/о н/о +11.4 +5.3 66 +9 +9 1009.1 999.5
16 14.09 З 5 н/о н/о +11.0 +6.2 72 +8 +8 1009.3 999.7
17 14.09 З 5 н/о н/о +10.3 +7.1 81 +7 +7 1009.5 999.8
18 14.09 З 6-7
{7}
н/о н/о +10.0 +7.4 84 +7 +7 1009.9 1000.3 +9.6 +12.6
19 14.09 З 6 н/о н/о +9.4 +7.1 86 +6 +6 1010.1 1000.4
20 14.09 З 6-7
{7}
н/о н/о +9.1 +6.9 86 +5 +5 1010.2 1000.5
21 14.09 З 5-7
{7}
н/о н/о +8.8 +6.5 85 +5 +5 1010.3 1000.6
22 14.09 З 5 н/о н/о +8.9 +6.9 87 +5 +5 1009.9 1000.2
23 14.09 З 5 н/о н/о +8.9 +7.7 92 +5 +5 1009.7 1000.0
00 15.09 З 5-6
{7}
н/о н/о +8.7 +8.1 96 +5 +5 1009.5 999.8
01 15.09 З 5-6
{6}
н/о н/о +8.5 +7.8 95 +5 +5 1009.0 999.3
02 15.09 ЮЗ 4 н/о н/о +8.2 +7.4 95 +5 +5 1008.6 998.9
03 15.09 ЮЗ 4-5
{5}
н/о н/о +8.0 +6.7 91 +5 +5 1007.5 997.8
04 15.09 ЮЗ 3-5
{5}
н/о н/о +8.6 +6.9 89 +6 +6 1006.5 996.8
05 15.09 Ю 6-8
{8}
н/о н/о +8.7 +7.6 93 +5 +5 1005.4 995.8
06 15.09 Ю 6-8
{8}
н/о н/о +9.2 +8.0 92 +5 +5 1004.1 994.5 +7.9 +10.0
07 15.09 Ю 7-9
{9}
н/о н/о +9.5 +7.8 89 +5 +5 1002.9 993.3
08 15.09 Ю 8 н/о н/о +9.9 +7.6 86 +6 +6 1001.3 991.8
09 15.09 Ю 9-10
{11}
н/о н/о +10.0 +7.2 83 +6 +6 999.5 989.9
10 15.09 Ю 9 н/о н/о +10.3 +7.9 85 +6 +6 998.0 988.5
11 15.09 ЮВ 10 н/о н/о +10.0 +8.9 93 +5 +5 996.3 986.8
12 15.09 ЮВ 14-18
{18}
н/о н/о +10.1 +8.2 88 +5 +5 993.6 984.1
13 15.09 ЮВ 15-18
{19}
н/о н/о +10.0 +7.9 87 +5 +5 991.7 982.3
14 15.09 ЮВ 14-18
{19}
н/о н/о +9.8 +8.3 90 +4 +4 989.8 980.4
15 15.09 ЮВ 13-15
{17}
н/о н/о +9.6 +8.9 95 +4 +4 987.7 978.2
16 15.09 ЮВ 12 н/о н/о +9.6 +9.0 96 +4 +4 986.4 977.0
17 15.09 В 9-11
{14}
н/о н/о +9.5 +8.9 96 +5 +5 985.2 975.8
18 15.09 В 11-13
{13}
н/о н/о +9.6 +8.9 95 +5 +5 984.0 974.6 +7.7 +11.3
19 15.09 В 10 н/о н/о +9.1 +8.4 95 +4 +4 983.3 973.9
20 15.09 В 9 н/о н/о +9.1 +8.4 95 +4 +4 982.5 973.1
21 15.09 В 9-12
{12}
н/о н/о +8.9 +8.1 95 +4 +4 982.2 972.8

 

Местоположение метеостанции Липери Туискаванлуото (Финляндия): широта 62.55 долгота 29.67 высота над уровнем моря 78 м.

В архиве по умолчанию представлена погода в Липери Туискаванлуото за последнюю неделю. Архивные данные за месяц целиком и за предыдущие месяцы, начиная с января 2011 года, Вы можете получить, выбрав интересующий диапазон дат из раскрывающегося списка и нажав кнопку "Ввод!".


*Определитесь, кто Вы:
робот инопланетянин человек

Внимание! Время в таблицах - всемирное. Для получения местного времени необходимо прибавить поправку, которая равна 1 ч.

Смотрите также архив погоды в соседних городах и на ближайших метеорологических станциях:

Погода в Йоэнсуу (Финляндия) (6 км)
Погода в Йоэнсуу аэропорту (Финляндия) (13 км)
Погода в Тохмаярви (Финляндия) (49 км)
Погода в Вяртсиле (Карелия, Россия) (66 км)
Погода в Мекриярви (Финляндия) (71 км)
Погода в Савонлинне (Финляндия) (77 км)
Погода в Рантасалми Руккаслю (Финляндия) (79 км)
Погода в Юуке (Финляндия) (79 км)
Погода в Лаукансаари (Финляндия) (85 км)
Погода в Лиексе (Финляндия) (88 км)

Пояснения к столбцам:

Ветер - указаны скорость ветра в м/с - средняя за 10 мин, порывы в срок и между сроками (в фигурных скобках) и направление, откуда дует ветер: С - северный, СВ - северо-восточный, В - восточный, ЮВ - юго-восточный, Ю - южный, ЮЗ - юго-западный, З - западный, СЗ - северо-западный.
Видимость - горизонтальная дальность видимости в метрах или километрах. При видимости от 1 до 10 км при отсутствии осадков обычно наблюдается дымка, при ухудшении видимости до 1 км и менее - туман. В сухую погоду видимость может ухудшаться дымом, пылью или мглою.
Явления - указаны атмосферные явления, наблюдавшиеся в срок или в последний час перед сроком; фигурными скобками обозначены явления, наблюдавшиеся между сроками (за 1-3 часа до срока); квадратными скобками обозначены град или гололедные отложения с указанием их диаметра в мм.
Облачность - указаны через наклонную черту общая и нижняя облачность в баллах и высота нижней границы облаков в метрах; квадратными скобками обозначены формы облаков: Ci - перистые, Cs - перисто-слоистые, Cc - перисто-кучевые, Ac - высококучевые, As - высокослоистые, Sc - слоисто-кучевые, Ns - слоисто-дождевые, Cu - кучевые, Cb - кучево-дождевые. Подробнее классификацию облаков см. в Атласе облаков (PDF).
T - Температура воздуха - температура, измеренная на высоте 2 м над землей.
Td - Температура точки росы - температура, при понижении до которой содержащийся в воздухе водяной пар достигнет насыщения.
f - Относительная влажность воздуха - влажноcть воздуха, измеренная на высоте 2 м над землей.
Te - Эффективная температура - температура, которую ощущает одетый по сезону человек в тени. Характеристика душности погоды. При расчете учитывается влияние влажности воздуха и скорости ветра на теплоощущения человека.
Tes - Эффективная температура на солнце - температура, которую ощущает человек, с поправкой на солнечный нагрев. Характеристика знойности погоды. Зависит от высоты солнца над горизонтом, облачности и скорости ветра. Ночью, в пасмурную погоду, а также при ветре 12 м/с и более поправка равна нулю.
P - Атмосферное давление - приведенное к уровню моря атмосферное давление.
Po - Атмосферное давление - измеренное на уровне метеостанции атмосферное давление.
Tmin - Минимальная температура - минимум температуры воздуха на высоте 2 м над землей.
Tmax - Максимальная температура - максимум температуры воздуха на высоте 2 м над землей.
R - Количество осадков - Количество выпавших осадков за период времени, мм. При наведении курсора мыши на число - период времени, за который выпало указанное количество осадков.
R24 - Количество осадков - Количество выпавших осадков за 24 часа, мм.
S - Снежный покров - Высота снежного покрова, см. При наведении курсора мыши на число - состояние снежного покрова и степень покрытия местности в баллах.